Regional Weather Roundup
Issued by NWS

Home | Current Version | Previous Version | Text Only | Print | Product List | Glossary On
Versions: 1 2 3 4 5 6 7 8 9 10 11 12 13 14 15 16 17 18 19 20 21 22 23 24 25 26 27 28 29 30 31 32 33 34 35 36 37 38 39 40 41 42 43 44 45 46 47 48 49 50
000
ASUS43 KLSX 190007
RWRMO

WEATHER SUMMARY FOR MISSOURI
NATIONAL WEATHER SERVICE SPRINGFIELD MO
700 PM CDT FRI AUG 18 2017

NOTE: "FAIR" INDICATES FEW OR NO CLOUDS BELOW 12,000 FEET WITH NO
       SIGNIFICANT WEATHER AND/OR OBSTRUCTIONS TO VISIBILITY.
       CURRENT SKY AND/OR WEATHER CONDITIONS ARE NOT AVAILABLE FOR
       CHILLICOTHE AND FARMINGTON.

MOZ001>031-035>038-043-044-053-054-190100-
...NORTHERN AND WESTERN MISSOURI...

CITY           SKY/WX    TMP DP  RH WIND       PRES   REMARKS
KANSAS CTY INT CLOUDY    74  67  78 E12       29.91S
6HR MIN TEMP:  73; 6HR MAX TEMP:  89; 6HR PCP:  0.09;

KANSAS C DTWN  PTSUNNY   87  69  54 SW5       29.88S HX  91
6HR MIN TEMP:  84; 6HR MAX TEMP:  89;

LEE`S SUMMIT   SUNNY     85  70  60 SW8       29.91S
6HR MIN TEMP:  78; 6HR MAX TEMP:  86;

ST JOSEPH      CLOUDY    82  71  69 N5        29.89R
6HR MIN TEMP:  82; 6HR MAX TEMP:  90;

CHILLICOTHE      N/A     74  73  97 CALM      29.90R
6HR MIN TEMP:  74; 6HR MAX TEMP:  91; 6HR PCP:  0.04;

KIRKSVILLE     CLOUDY    80  64  58 W5        29.89F
6HR MIN TEMP:  80; 6HR MAX TEMP:  90;


$$
MOZ066>068-077>081-088>096-101>105-190100-
...SOUTHWEST MISSOURI...

CITY           SKY/WX    TMP DP  RH WIND       PRES   REMARKS
SPRINGFIELD    CLOUDY    79  67  66 S15G22    29.94F
6HR MIN TEMP:  79; 6HR MAX TEMP:  86;

JOPLIN         CLOUDY    82  72  71 SE12G18   29.95R
6HR MIN TEMP:  82; 6HR MAX TEMP:  89;

BRANSON        TSTM      77  75  94 SW5       30.00R

$$
MOZ032>034-039>042-045>050-055>058-069>072-190100-
...CENTRAL MISSOURI...

CITY           SKY/WX    TMP DP  RH WIND       PRES   REMARKS
COLUMBIA       CLOUDY    80  68  66 S10       29.92F
6HR MIN TEMP:  80; 6HR MAX TEMP:  83;

JEFFERSON CITY MOSUNNY   81  70  69 S6        29.90F
6HR MIN TEMP:  79; 6HR MAX TEMP:  84;

ROLLA          CLEAR     77  69  76 SE6       29.96F
6HR MIN TEMP:  77; 6HR MAX TEMP:  82;

SEDALIA        SUNNY     82  76  81 S9        29.92F
6HR MIN TEMP:  76; 6HR MAX TEMP:  86;

WHITEMAN AFB   MOSUNNY   84  80  89 SW7       29.89F HX  97
WARRENSBURG    MOSUNNY   84  72  65 S5        29.89F
OSAGE BEACH    MOSUNNY   81  73  76 S6        29.93F

$$
MOZ051-052-059>065-190100-
...EAST CENTRAL MISSOURI...

CITY           SKY/WX    TMP DP  RH WIND       PRES   REMARKS
ST LOUIS INTL  CLOUDY    84  65  52 SW14      29.92S
6HR MIN TEMP:  84; 6HR MAX TEMP:  91;

SPIRIT OF STL  CLOUDY    80  68  66 SW6       29.91S
6HR MIN TEMP:  80; 6HR MAX TEMP:  89;

ST CHARLES     CLOUDY    81  68  64 SW8       29.89F
6HR MIN TEMP:  81; 6HR MAX TEMP:  88;


$$
MOZ072>076-082>087-097>100-106>115-190100-
...SOUTH CENTRAL AND SOUTHEAST MISSOURI...

CITY           SKY/WX    TMP DP  RH WIND       PRES   REMARKS
CAPE GIRARDEAU CLEAR     80  71  74 SW3       29.94S
6HR MIN TEMP:  79; 6HR MAX TEMP:  88;

FARMINGTON     PTCLDY    81  69  67 SW3       29.96F
6HR MIN TEMP:  81; 6HR MAX TEMP:  86;

POPLAR BLUFF   CLOUDY    81  70  69 S6        29.95S
6HR MIN TEMP:  81; 6HR MAX TEMP:  89;

WEST PLAINS    PTCLDY    81  65  58 S6        29.98S
6HR MIN TEMP:  81; 6HR MAX TEMP:  85;


$$



USA.gov is the U.S. government's official web portal to all federal, state and local government web resources and services.